Lapse_Rate
8.1 8.2 8.8 8.1 8.2 8.2 8.8 8.9 8.3 8.0 7.5 6.8 5.9 5.2 5.1 5.3 7.0 4.2 1.5 -0.3 1.1 3.0 4.8 3.3 2.8 4.2 4.3 4.0 6.5 5.4 5.9 5.9 6.3 6.5 6.5 6.5 6.5 6.5 6.5 6.5 6.5 6.5 6.5 6.5 6.5 6.5 6.5 5.9 6.3 6.5 6.4 6.4 6.4 6.5
8.0 8.3 8.9 8.2 8.4 8.5 8.1 8.5 8.0 7.7 7.3 7.1 5.7 5.9 5.2 6.1 5.6 3.2 1.9 0.4 0.1 1.5 5.8 4.4 3.4 2.3 2.6 4.2 2.4 4.3 5.5 5.4 4.8 6.5 6.5 6.5 6.5 6.5 6.5 6.5 6.5 6.5 6.5 6.5 6.5 6.5 6.2 6.0 6.2 6.7 6.6 6.5 6.4 5.6
8.2 8.2 8.8 8.6 8.4 8.2 8.1 8.4 7.9 7.9 7.2 6.6 5.8 6.3 5.4 5.8 6.7 3.7 1.5 0.2 -0.3 3.8 5.6 4.2 4.2 3.7 3.3 1.8 2.4 3.5 3.6 4.1 4.1 2.1 4.5 6.5 6.5 6.5 6.5 6.5 6.5 6.5 6.1 6.5 6.5 6.5 6.5 5.9 5.9 6.3 6.2 5.8 5.2 6.0
8.1 7.8 8.1 8.6 8.9 8.2 8.1 8.2 7.5 7.8 7.2 6.5 5.4 6.1 5.7 5.9 6.6 4.8 3.2 1.0 1.0 2.2 5.7 6.4 5.8 4.1 3.1 2.6 3.2 2.7 1.6 2.7 2.6 2.3 3.0 6.5 6.5 5.8 6.5 6.5 6.5 6.1 6.4 6.5 6.5 6.3 6.0 6.1 6.2 5.7 5.2 5.8 5.7 5.5
8.1 8.0 8.2 8.3 8.6 8.1 8.0 7.8 6.8 7.2 6.6 7.0 5.4 5.6 5.5 5.9 6.2 3.4 2.1 1.5 2.0 3.4 6.4 6.0 4.9 4.7 4.0 3.9 3.1 3.2 2.8 2.4 2.5 3.3 5.9 6.5 5.8 6.2 6.2 6.4 6.5 5.4 6.5 6.5 6.5 5.9 5.8 5.3 5.0 5.5 5.7 6.1 6.2 6.1
7.7 7.7 7.7 8.0 8.2 8.7 7.9 7.5 6.5 7.0 6.0 5.7 5.7 5.4 6.1 6.0 6.5 4.6 4.9 2.7 2.1 0.0 1.9 6.5 5.2 5.6 4.8 4.5 3.9 3.8 3.3 2.5 2.9 4.1 5.6 4.8 5.2 4.9 6.5 6.5 5.9 4.6 4.7 5.0 5.6 5.5 5.2 4.8 5.0 5.4 5.6 5.3 5.5 5.8
7.7 7.7 7.7 7.9 8.2 8.0 7.8 7.0 6.3 6.8 5.7 5.7 5.3 5.3 5.7 7.6 3.8 3.4 3.3 2.6 2.7 0.3 -0.3 6.4 6.4 6.6 6.1 5.5 5.1 4.8 4.1 3.8 3.5 4.1 4.5 5.3 5.2 3.2 6.5 6.5 5.9 4.7 5.2 5.1 6.5 6.7 6.6 5.7 5.7 4.7 4.3 4.6 5.3 5.2
8.0 8.0 7.9 7.9 7.9 7.6 7.9 6.6 6.6 5.6 5.7 5.2 5.6 6.1 6.9 7.2 5.7 3.1 2.5 3.2 1.3 0.2 1.1 6.5 6.5 6.6 6.4 5.9 6.2 6.1 5.5 4.6 4.4 4.9 4.9 6.0 5.5 5.7 6.5 6.0 4.9 5.2 6.6 7.0 6.6 6.2 6.7 5.5 4.2 5.3 5.7 4.9 5.5 5.6
7.9 7.6 8.0 7.8 7.4 7.7 7.7 6.8 5.6 5.5 5.2 5.5 6.3 7.5 6.7 4.8 3.9 3.4 4.4 3.0 0.6 1.7 4.5 5.8 6.5 6.5 5.4 6.1 5.5 6.0 5.1 6.4 5.3 6.4 6.3 5.9 6.5 6.5 6.5 5.4 5.2 5.9 6.5 7.3 7.1 6.4 6.1 5.5 4.9 5.8 5.3 5.3 6.5 6.6
7.4 7.8 7.8 7.4 7.4 8.1 7.2 6.5 5.5 5.5 5.4 6.8 6.9 5.4 5.0 5.0 4.9 4.8 4.0 3.7 1.4 0.1 1.9 6.3 5.0 6.5 5.2 5.5 5.8 6.1 5.4 6.5 6.5 6.4 5.3 6.5 6.5 5.6 4.6 4.0 4.4 4.8 5.5 6.2 6.6 6.5 6.1 6.1 5.3 6.1 6.1 6.3 6.3 5.9
7.5 7.6 7.7 7.3 7.9 7.9 7.8 6.7 5.6 6.3 7.1 5.1 5.2 6.1 5.7 5.8 4.1 2.6 4.1 4.8 3.7 6.6 4.7 5.2 5.1 6.4 5.6 6.4 6.5 5.2 6.5 6.5 6.5 6.5 6.5 6.5 6.5 5.8 3.4 3.0 3.9 5.4 6.1 6.1 6.7 6.4 6.5 6.4 6.5 6.0 6.1 5.9 5.7 5.5
7.3 7.7 7.6 7.7 8.0 8.5 7.0 6.5 6.5 5.3 4.7 4.8 4.1 5.7 5.3 4.2 4.8 6.4 6.5 6.2 6.5 6.5 5.8 6.1 4.5 4.0 4.4 3.9 5.5 6.2 6.5 6.5 6.5 5.6 6.5 6.5 6.5 1.0 3.1 4.3 5.3 5.7 6.1 6.2 6.6 6.6 6.1 5.8 5.7 5.4 5.4 5.1 4.7 4.6
7.9 7.6 7.7 7.6 7.9 7.2 7.1 6.9 7.1 5.8 4.7 3.8 4.0 5.2 5.3 5.8 6.5 6.5 6.5 6.5 6.5 5.9 5.9 5.6 6.3 4.6 4.8 3.5 4.8 6.5 6.5 6.5 6.4 6.5 6.5 6.5 3.9 2.5 1.6 4.0 4.3 5.7 6.2 6.0 6.3 6.2 5.9 5.4 5.2 4.9 5.0 4.5 4.3 4.1
7.5 7.7 7.7 6.1 6.5 7.0 7.3 6.8 6.4 6.6 3.3 4.4 6.0 6.5 6.5 6.5 6.5 6.5 6.5 6.5 4.4 5.1 6.2 5.4 5.9 5.7 5.3 6.0 6.6 6.5 6.5 6.5 6.5 6.5 6.5 6.5 2.9 2.8 2.5 4.0 5.8 7.0 6.5 6.1 5.7 5.5 5.4 5.2 4.8 4.3 4.4 3.9 4.0 3.5
7.2 7.3 7.8 6.4 7.1 7.3 7.1 7.5 7.0 2.4 4.3 5.5 5.3 6.5 6.5 5.8 6.2 4.8 2.6 4.4 4.2 6.5 4.2 4.9 5.2 5.0 6.5 6.5 6.5 6.5 6.5 6.5 6.5 6.5 6.5 1.2 1.7 1.5 2.4 4.1 5.4 6.3 6.0 5.8 5.2 4.9 5.4 5.2 4.9 4.9 4.5 3.5 3.2 3.3
7.2 7.3 5.5 6.7 7.1 7.1 7.5 5.6 4.1 3.2 3.6 4.8 4.2 6.2 6.7 6.4 6.4 4.0 4.7 6.4 6.1 4.9 2.3 3.3 6.5 6.5 6.5 6.5 6.5 6.5 6.5 6.5 6.5 6.4 0.4 0.6 1.3 1.5 1.8 2.8 5.6 5.9 5.6 5.5 5.1 4.3 3.8 3.4 3.0 2.6 2.4 2.9 3.2 3.2
6.1 5.5 6.2 6.9 7.0 7.0 6.0 4.2 3.8 4.4 5.5 5.4 6.4 5.8 5.2 5.4 5.8 4.8 6.5 5.9 5.2 3.4 6.5 6.2 6.5 6.5 6.5 6.5 6.5 6.5 6.5 6.5 1.6 1.0 -0.2 1.2 1.1 1.2 1.1 1.5 4.1 5.5 5.3 5.1 5.1 4.6 4.1 3.9 3.7 3.7 3.4 3.8 3.1 3.0
5.2 6.4 6.6 6.7 6.5 4.9 3.0 2.3 4.2 5.8 6.5 5.8 6.2 6.1 5.9 5.4 6.2 5.8 5.0 5.5 3.7 2.0 2.8 6.1 4.5 6.5 6.5 6.5 6.5 6.4 2.2 -0.4 0.0 0.1 0.6 1.7 1.4 0.8 1.0 1.5 2.5 4.3 4.7 4.5 4.6 4.4 4.3 4.2 4.6 4.4 4.5 3.8 2.9 2.7
7.0 7.0 7.0 7.0 5.6 3.3 4.1 4.3 4.4 6.1 5.5 5.9 5.8 5.4 5.7 5.7 5.2 4.9 6.0 3.1 1.3 1.1 1.7 1.8 6.5 6.5 6.5 5.6 5.0 -0.5 2.2 1.0 4.3 2.5 2.1 1.8 1.6 1.3 1.2 -0.6 1.6 3.3 3.3 1.4 1.4 2.4 2.6 2.8 3.7 3.6 3.2 2.7 2.5 2.3
7.1 7.1 6.8 5.9 4.2 3.3 5.4 5.5 4.7 4.9 6.3 5.9 5.3 5.4 5.5 5.4 4.9 4.8 3.5 3.0 1.6 -0.4 3.5 6.5 6.5 5.1 3.9 2.4 0.0 -0.1 2.1 2.9 1.5 2.7 2.9 1.9 1.2 -2.0 0.0 -0.2 0.9 0.7 0.7 0.2 -0.9 1.0 -0.3 0.3 0.6 0.7 0.7 1.1 1.4 1.7
5.7 4.7 4.1 2.8 1.9 3.6 4.9 5.1 5.2 5.3 5.6 5.9 5.1 5.7 5.7 5.0 5.7 5.3 4.0 2.4 2.3 1.1 6.5 2.3 2.9 2.3 0.6 -0.5 0.8 0.8 0.8 0.9 1.8 2.4 2.6 0.1 1.0 -0.7 -1.7 -2.5 -2.8 -0.1 0.8 0.4 0.2 0.3 2.2 0.8 0.1 -1.8 -3.5 0.3 0.9 1.3
4.8 4.2 2.8 2.6 3.3 4.2 4.9 4.8 5.4 5.5 5.8 5.9 5.6 5.7 6.2 6.4 6.2 4.9 3.4 4.6 2.9 1.9 0.9 1.9 -0.1 -0.3 -0.3 1.6 1.5 -0.8 1.2 1.4 1.2 1.7 2.4 2.5 1.2 -0.9 -1.1 -1.2 -1.6 -1.2 -1.9 -2.3 -2.4 -1.8 -1.7 -2.0 -2.2 -2.4 -2.4 -2.0 -0.8 -1.3
4.7 3.6 2.6 3.3 5.1 5.6 5.9 5.1 6.1 5.9 6.5 6.4 6.0 6.5 6.5 6.3 4.6 2.7 5.1 4.3 2.5 -0.6 -1.4 -1.7 -3.0 -4.6 -1.9 -3.1 -0.4 -0.1 -0.2 -1.1 0.8 1.6 2.0 1.8 1.6 -1.0 -1.4 -0.9 -1.3 -2.5 -2.8 -2.1 -3.3 -2.9 -3.3 -0.1 -1.3 -1.6 -3.0 -2.7 -2.7 -2.3
3.2 2.2 4.5 5.5 5.8 6.5 5.8 6.3 6.3 6.4 6.3 6.5 6.5 6.5 6.5 6.3 4.5 5.1 6.5 5.0 1.0 -1.4 -1.4 -2.1 -3.2 -2.1 -2.7 -2.9 -2.0 -2.1 -2.2 -1.7 -1.5 -2.7 -3.5 -1.4 -1.1 0.2 1.2 0.8 1.2 -0.7 -1.7 -2.7 -3.5 -3.3 -3.6 -2.8 -0.7 -3.2 -3.8 -3.8 -3.5 -2.9
5.4 5.7 5.5 6.5 5.8 6.4 6.5 6.5 6.5 6.5 6.5 6.5 6.5 6.5 6.5 5.6 6.5 6.5 6.5 4.9 0.0 -1.3 -2.1 -3.1 -2.2 -2.4 -1.7 -3.9 -3.0 -3.0 -4.2 -3.0 -1.8 -1.4 -3.2 -3.6 -3.2 -3.1 -2.6 -2.0 -0.3 -1.7 -3.3 -3.8 -2.1 -2.3 -3.1 -4.5 -4.4 -4.1 -3.5 -3.2 -2.8 -1.6
6.5 6.0 6.4 6.5 6.5 6.5 6.5 6.5 6.5 6.5 6.5 6.5 6.5 6.4 5.8 6.5 6.5 6.5 6.5 1.7 -0.3 -1.9 -3.3 -1.5 -1.4 -2.0 -1.4 -2.7 -2.0 -2.4 -2.5 -5.2 -3.6 -2.3 -3.5 -5.2 -3.8 -2.9 -3.6 -2.5 -3.0 -3.1 -4.8 -4.2 -4.4 -3.3 -3.3 -3.9 -3.7 -3.6 -2.4 -1.6 1.0 -0.3
6.5 6.5 5.9 6.0 5.6 5.7 6.3 6.5 6.4 6.5 6.5 6.5 6.5 6.5 6.5 6.5 6.5 6.6 1.0 -1.1 -1.3 -4.7 -6.2 -3.8 -2.2 -1.3 -0.8 -3.1 -4.2 -5.0 -7.0 -8.5 -6.4 -5.5 -6.8 -7.5 -7.7 -7.7 -6.1 -4.3 -3.7 -3.8 -5.3 -5.7 -5.2 -4.1 -3.6 -3.3 -3.2 -3.2 -2.9 -2.8 -2.9 -2.3
6.4 5.8 6.5 5.8 5.6 4.4 6.5 6.5 6.5 6.5 6.5 6.0 6.5 6.5 6.5 6.5 6.5 2.2 -0.5 -4.3 -6.3 -6.5 -5.7 -6.4 -6.5 -4.6 -3.4 -5.6 -6.8 -5.5 -8.3 -10.0 -8.5 -7.9 -6.3 -6.8 -9.2 -10.3 -9.8 -9.0 -7.1 -1.3 -6.1 -6.4 -5.8 -5.9 -4.6 -3.7 -3.0 -2.3 -1.8 -1.5 -1.2 -2.6
6.2 5.8 5.6 6.5 6.3 6.3 6.5 6.5 6.5 5.7 5.4 6.0 6.5 6.5 6.1 2.8 -0.5 -1.7 -2.7 -5.1 -7.3 -4.4 -2.9 -3.4 -6.1 -7.2 -7.3 -8.2 -8.7 -9.8 -9.7 -6.1 -3.0 -1.5 -1.1 -3.0 -5.3 -5.5 -9.8 -9.7 -9.1 -8.7 -8.5 -7.2 -0.9 0.2 -1.5 0.1 1.5 2.7 2.4 0.5 -0.5 -2.2
6.0 5.4 6.3 6.4 6.5 6.5 6.1 4.1 5.2 3.5 3.2 2.5 2.5 2.0 2.0 0.8 -1.9 -5.0 -4.9 -5.6 -3.8 -3.9 -5.4 -5.4 -6.1 -6.4 -5.2 -4.0 -5.9 -6.4 -10.2 -11.1 -8.6 -3.9 -3.3 -3.9 -4.5 -7.3 -9.3 -8.6 -7.1 -7.0 -8.2 -7.0 -5.3 -4.9 1.0 -0.6 -0.6 -2.7 -1.5 -1.3 -1.5 -1.1
5.2 5.4 6.1 6.4 6.5 5.5 4.0 2.3 2.0 2.3 0.9 0.5 -0.7 1.3 1.6 -0.5 -1.1 -3.3 -4.8 -6.3 -6.8 -6.7 -5.2 -6.8 -9.4 -11.3 -5.7 -7.3 -6.5 -5.2 -3.8 -9.1 -11.1 -10.4 -10.2 -9.4 -9.4 -9.1 -8.3 -6.9 -6.2 -6.7 -6.7 -5.2 -3.7 -2.5 -2.1 -2.4 -2.5 -1.8 -1.5 -2.0 -2.1 -0.3
5.6 6.0 6.5 6.5 6.4 3.8 1.9 2.2 2.1 2.1 0.9 1.1 0.7 -1.2 -0.9 0.0 1.7 -1.7 -6.4 -7.2 -7.2 -5.9 -3.8 -5.0 -3.5 -4.2 -8.5 -10.2 -10.4 -9.8 -3.0 -9.1 -10.2 -9.8 -8.7 -8.5 -7.8 -5.9 -4.9 -4.7 -5.6 -4.5 -3.4 -2.2 -1.2 -2.4 -2.6 -3.4 -3.4 -2.9 -1.7 -2.3 -2.5 -2.5
5.0 4.7 4.1 5.6 5.8 4.8 2.3 2.7 3.2 3.4 2.1 1.6 0.5 -2.7 -3.6 -1.4 2.6 -2.0 -8.2 -9.7 -6.4 -4.8 -4.7 -6.4 -9.1 -7.9 -7.6 -8.5 -9.1 -9.3 -7.2 -10.9 -8.2 -1.6 -0.1 1.1 2.5 2.4 0.6 -2.8 -2.5 -1.8 -1.2 -1.3 -2.3 -2.8 -3.2 -3.9 -3.5 -2.9 -2.7 -2.8 -2.5 -2.2
Wind_Speed
36 36 33 28 30 25 22 20 19 19 19 18 19 14 35 37 29 5 0 3 3 3 4 4 3 4 3 2 4 4 4 2 2 3 3 3 2 3 1 3 5 6 5 3 3 2 6 5 4 3 3 4 5 9
36 36 33 29 29 25 24 20 18 18 18 18 17 12 33 33 22 7 3 1 7 5 3 2 6 5 2 2 5 2 2 3 4 4 1 2 1 1 2 2 1 3 4 2 6 4 1 2 3 2 1 2 6 9
36 35 34 30 28 25 25 21 18 17 18 17 16 22 34 37 25 6 2 3 4 3 2 4 4 6 6 4 3 4 2 4 3 2 3 2 2 3 3 4 2 2 1 2 2 0 1 1 2 1 3 3 6 7
36 36 33 31 30 26 25 21 19 18 19 19 18 28 32 32 22 7 2 1 5 3 4 2 3 4 8 6 4 2 6 5 5 3 2 2 2 2 2 1 3 4 1 3 5 4 3 1 2 4 7 5 4 9
33 35 32 31 29 26 24 22 19 18 17 15 14 29 32 26 18 11 3 2 2 3 4 2 1 6 6 6 10 8 6 5 3 2 2 2 1 2 1 1 3 4 5 4 4 1 1 5 4 5 7 8 5 4
34 33 32 30 28 25 25 22 18 17 17 21 28 33 31 29 22 4 3 2 2 3 5 3 1 4 6 6 9 8 4 4 3 3 2 1 2 3 2 2 4 3 1 2 2 2 4 10 10 10 9 7 7 6
34 31 30 29 27 24 24 21 17 17 20 23 29 31 30 23 4 4 3 3 9 3 4 4 2 1 2 3 3 3 4 2 2 2 1 2 0 3 2 3 3 5 1 3 6 4 5 2 5 10 9 9 10 7
32 31 29 28 27 26 23 17 15 20 29 35 34 31 27 27 14 5 4 4 6 5 3 4 2 1 1 1 1 2 2 2 3 1 1 1 0 1 4 6 5 3 2 5 4 5 5 6 7 8 4 5 7 6
29 29 29 30 28 26 21 15 18 38 38 38 37 31 8 5 3 2 4 10 7 3 4 3 7 4 2 2 2 1 1 2 0 1 1 2 2 5 6 6 5 5 2 7 6 6 3 4 7 6 5 8 7 6
31 31 32 31 29 27 22 11 39 39 42 40 15 4 3 1 7 3 5 2 4 3 3 3 3 3 4 3 1 2 1 1 1 3 2 2 3 5 6 7 5 4 4 2 4 4 4 6 6 8 7 9 6 5
32 33 33 31 30 25 20 30 44 41 33 3 3 3 4 8 2 3 2 2 1 1 2 3 3 5 2 3 3 2 3 1 1 3 3 3 3 4 3 6 6 5 2 3 4 5 5 4 6 6 6 6 5 5
32 33 31 30 27 26 25 43 42 9 4 8 12 7 2 3 2 4 3 1 4 6 3 4 4 3 2 3 3 2 3 2 3 3 1 3 4 4 6 6 5 4 1 3 3 5 2 3 4 6 5 4 5 5
30 30 28 24 25 21 41 38 23 28 28 5 5 4 3 0 2 8 8 3 3 4 5 4 4 3 2 2 3 3 4 4 2 2 3 4 3 4 5 4 5 3 1 2 3 1 2 2 3 4 5 4 4 4
28 26 24 22 19 44 35 33 36 19 5 4 4 7 7 5 5 4 3 5 3 6 11 6 4 3 2 3 3 4 3 3 3 4 5 3 6 6 6 5 3 2 1 1 2 2 2 2 2 3 2 2 2 2
22 23 27 13 36 34 37 34 13 5 3 3 4 6 5 2 2 2 2 4 2 10 7 5 4 3 2 4 2 3 5 4 5 5 3 3 5 7 6 6 4 4 2 1 1 1 2 2 1 2 2 3 2 2
17 24 5 16 28 36 31 13 5 2 3 3 3 4 4 4 3 2 4 8 5 8 3 3 4 4 2 5 4 6 7 7 4 3 3 4 6 6 6 6 5 4 4 3 2 1 2 2 2 3 5 3 2 2
19 1 16 33 36 26 16 4 3 4 3 3 2 2 2 3 4 3 5 5 5 3 3 3 5 6 3 3 2 4 5 3 3 2 2 5 7 7 6 5 5 4 4 3 2 2 3 3 3 3 4 2 2 3
4 10 39 42 21 9 3 4 3 3 4 2 2 1 2 2 6 4 3 6 3 2 3 4 4 3 5 7 3 3 2 2 1 2 3 4 5 5 5 6 5 4 3 3 3 3 3 3 4 4 4 4 4 4
16 22 31 27 11 5 3 3 3 3 2 1 1 2 2 3 3 3 7 4 3 3 5 2 4 3 3 3 3 2 3 2 4 3 2 3 5 6 5 4 5 5 4 2 2 3 4 5 6 5 5 4 5 3
33 31 20 16 10 3 4 2 1 3 2 1 2 2 2 2 2 4 4 3 2 2 3 2 3 3 3 2 3 2 3 3 4 3 2 2 3 4 5 5 4 4 3 4 3 6 3 3 3 4 4 4 3 4
16 7 12 7 3 5 3 2 3 2 2 3 0 1 2 2 3 2 2 1 3 2 1 3 2 1 1 0 2 3 4 4 4 3 3 2 3 3 2 2 3 3 2 2 3 3 3 3 2 2 2 3 3 3
4 11 3 4 4 3 3 3 3 2 2 2 2 2 3 2 2 2 2 2 1 3 3 3 2 2 2 3 2 2 3 4 4 3 5 6 3 1 1 3 3 3 3 3 3 3 3 2 2 2 2 3 3 2
9 4 4 3 4 4 2 1 3 2 3 2 1 3 2 2 1 2 1 1 3 2 2 2 2 2 3 1 3 3 3 4 2 2 2 2 2 1 1 2 3 3 2 3 2 3 2 2 3 2 2 2 1 2
7 4 4 3 3 3 2 2 2 3 2 2 2 3 2 1 1 2 2 2 2 1 2 3 2 3 2 3 1 0 1 1 2 1 0 3 1 2 2 2 2 2 2 1 1 1 1 1 3 3 2 2 2 2
5 3 3 5 2 4 4 3 2 2 3 2 3 2 2 1 2 2 3 3 2 2 2 2 2 2 3 0 1 1 2 2 3 3 1 1 2 1 2 3 3 2 0 3 1 1 1 1 1 2 2 3 4 5
5 2 2 3 3 3 4 4 4 4 4 3 2 2 1 2 2 5 3 3 3 3 4 5 4 3 1 2 3 1 1 1 2 3 1 1 2 3 2 3 1 2 2 2 2 1 2 2 2 4 5 6 10 7
4 2 1 1 3 4 3 3 2 2 3 5 4 5 3 4 5 3 0 1 2 2 2 3 3 3 4 3 2 2 2 2 2 3 3 3 3 2 2 3 2 1 1 1 1 0 2 3 3 4 5 4 4 5
3 3 6 3 3 1 4 3 4 5 4 3 6 5 8 7 4 1 1 0 2 3 4 3 2 2 4 3 2 4 3 2 5 4 4 4 3 3 3 2 3 5 2 1 2 2 3 3 4 5 6 6 7 3
3 1 3 4 3 3 2 1 2 1 1 4 3 3 3 0 0 0 1 1 2 3 5 5 3 3 5 4 4 3 2 3 4 3 1 2 2 2 1 2 2 2 1 1 6 5 5 6 6 6 4 3 4 4
2 0 3 2 3 2 1 1 1 1 1 2 1 2 2 2 1 0 1 2 3 3 2 2 4 2 4 4 3 3 2 1 1 3 3 3 3 2 2 2 3 2 1 2 3 4 7 3 5 4 4 4 3 5
2 2 3 3 3 1 0 1 1 2 2 2 2 2 2 1 0 1 2 1 3 4 5 4 2 1 4 3 3 3 0 1 2 3 2 2 1 2 3 3 3 2 1 2 3 3 3 3 3 4 5 7 8 8
2 2 3 3 2 0 1 1 1 2 3 2 2 1 1 2 2 2 1 3 3 3 3 5 5 3 3 2 2 2 6 3 3 3 3 2 3 4 4 3 2 2 2 3 3 3 2 3 3 4 6 8 8 8
2 2 3 4 3 1 1 2 3 2 3 2 3 1 1 0 3 3 0 0 2 3 4 3 2 4 5 5 4 3 4 2 1 2 4 5 6 5 3 1 2 1 1 1 2 1 3 5 4 6 7 7 8 8
Wind_Direction
280 284 284 284 282 280 270 268 280 284 293 310 308 320 174 171 171 130 327 319 116 93 12 10 43 107 74 99 142 176 92 329 68 87 120 216 152 209 161 198 176 169 167 208 188 233 281 333 3 65 307 311 322 339
274 276 276 276 274 272 267 260 269 271 285 299 300 263 167 163 153 122 108 249 69 80 118 100 103 94 52 345 122 40 145 146 166 100 112 111 119 40 137 252 313 226 196 187 185 222 197 332 118 97 316 312 355 345
267 269 269 268 265 263 259 248 257 256 275 284 276 180 170 170 173 104 139 130 70 99 61 47 359 333 24 9 263 119 291 155 112 161 149 137 150 127 164 243 276 277 111 225 351 62 343 60 105 343 319 316 334 331
261 260 260 259 258 253 249 237 245 246 262 284 307 171 170 171 175 121 110 56 82 103 102 21 339 19 328 1 44 61 124 74 102 80 97 124 146 159 215 221 211 209 102 201 264 282 43 96 119 348 326 280 312 318
258 252 250 249 246 242 239 230 237 247 262 246 258 161 159 151 134 88 71 46 95 127 117 101 322 347 2 28 51 48 79 87 77 69 79 154 122 117 2 18 248 190 196 170 233 215 185 256 286 308 310 295 279 272
255 248 239 238 234 229 227 223 224 237 251 275 172 157 145 137 137 118 52 339 77 127 108 103 295 13 11 42 50 42 48 63 80 113 127 153 209 108 124 233 256 210 177 146 256 332 275 277 284 285 289 274 292 277
248 241 227 219 216 217 214 217 218 229 267 165 144 141 141 137 81 88 194 186 148 128 89 98 67 337 341 16 22 28 30 60 86 95 75 140 166 103 139 238 251 166 166 293 297 285 271 270 279 309 295 284 284 273
238 223 211 200 198 205 204 205 214 249 140 127 126 119 118 113 119 53 345 97 87 86 74 106 86 167 175 95 75 356 46 35 19 103 34 156 109 114 247 235 238 253 276 299 237 239 253 287 298 290 299 316 306 275
213 196 192 181 185 188 182 188 188 132 125 121 115 108 83 35 76 157 153 76 66 98 109 108 149 191 156 118 127 63 88 56 300 79 247 115 199 232 222 204 198 192 202 291 296 292 339 310 303 311 324 317 316 311
182 173 171 172 173 171 160 188 128 124 120 118 110 71 109 160 138 170 18 45 31 359 65 102 131 139 149 142 120 108 7 149 136 240 111 204 254 247 219 204 184 189 236 282 285 308 333 327 330 327 321 306 294 312
150 157 161 162 161 158 158 156 127 126 123 76 108 90 112 140 87 38 69 116 181 55 152 141 140 134 231 125 151 173 176 178 224 248 143 259 266 239 181 163 185 199 203 242 264 270 280 286 303 320 345 20 14 12
144 152 152 154 156 149 167 136 134 116 120 137 109 99 103 78 113 156 195 90 197 188 149 127 159 140 158 129 104 173 134 57 244 150 167 259 250 221 173 184 179 125 118 274 288 287 298 314 325 321 342 11 25 13
141 139 145 153 147 176 147 140 120 126 126 107 74 88 136 354 87 176 188 240 149 174 161 151 119 125 100 71 81 115 147 211 148 207 234 226 238 185 184 142 101 103 37 299 290 22 345 334 358 0 359 10 26 49
130 136 134 128 167 145 139 135 142 148 88 88 123 139 200 189 229 185 173 147 157 130 131 117 103 117 135 89 143 104 213 148 220 234 236 241 207 172 151 131 150 145 125 316 315 337 352 2 26 23 13 356 7 27
123 125 136 153 152 140 139 147 120 38 66 102 130 181 189 147 85 115 131 98 98 140 124 106 74 100 115 116 165 116 172 223 224 227 229 220 163 144 153 151 156 166 157 200 335 360 51 61 7 328 340 323 314 312
109 133 125 197 155 141 138 91 44 69 61 74 66 110 106 93 123 60 96 119 140 138 97 72 113 90 185 140 142 198 160 219 241 213 222 142 143 150 163 160 173 175 169 181 229 268 358 27 11 306 307 293 288 297
73 290 198 142 141 125 90 68 67 52 76 61 40 50 120 99 126 142 139 131 137 100 122 124 113 185 106 91 203 189 205 220 211 213 165 154 156 167 169 161 165 172 169 172 191 234 251 258 276 299 306 272 299 277
70 129 135 133 124 84 53 36 72 60 64 50 85 71 45 87 121 123 112 134 113 105 120 179 126 125 162 168 222 231 201 238 161 145 151 140 144 155 162 165 172 179 173 193 215 225 220 247 261 263 261 258 262 260
146 145 136 136 110 94 77 50 50 96 81 63 49 31 57 81 49 79 113 68 81 102 108 53 91 167 205 208 193 220 188 174 162 158 153 165 168 166 165 142 167 187 205 220 224 252 264 277 275 281 279 279 269 260
139 133 123 95 60 76 85 59 40 81 94 94 49 39 57 67 80 94 85 66 79 85 64 116 201 207 185 216 186 165 154 130 128 117 146 186 181 143 174 167 182 189 205 231 247 252 259 276 250 245 251 252 262 269
102 103 86 68 67 56 79 66 58 71 92 76 34 51 71 36 72 72 63 353 61 139 213 210 218 212 81 45 133 136 142 145 171 155 161 175 195 164 162 171 156 170 198 226 242 265 244 244 258 305 287 290 293 283
83 73 79 51 76 65 76 17 95 98 69 89 63 36 79 73 79 66 304 65 200 231 191 180 203 153 102 127 108 91 130 126 116 105 93 116 123 138 202 191 142 205 211 216 198 213 243 260 285 266 266 285 314 287
102 59 56 61 84 61 77 355 76 39 105 123 91 82 49 70 30 297 122 216 250 227 177 153 137 97 122 31 81 67 89 117 143 156 168 176 157 134 96 140 159 162 227 262 190 188 214 297 329 339 322 334 323 306
47 54 57 68 79 97 95 62 87 104 108 90 89 100 99 112 316 57 227 237 234 147 160 165 127 89 55 47 82 259 313 162 138 67 89 129 143 264 198 208 193 204 195 157 124 139 191 245 337 342 334 314 303 288
89 15 82 70 69 106 108 126 106 89 99 110 113 132 171 181 131 186 233 252 208 194 169 125 106 86 137 189 341 288 278 169 152 160 317 141 124 64 37 39 75 56 337 118 185 160 273 314 319 317 304 298 297 301
81 10 69 129 131 135 156 132 157 135 120 116 87 117 156 129 149 236 222 206 201 175 173 168 151 125 119 178 148 184 221 1 106 95 295 181 164 140 171 167 165 293 351 85 124 211 276 296 309 314 305 309 317 323
120 136 92 45 104 111 96 72 82 120 140 160 164 164 148 175 229 244 276 236 154 216 167 142 144 152 153 151 104 76 64 56 92 130 107 75 57 52 133 151 190 225 69 55 40 225 282 293 288 274 278 288 261 257
106 163 136 171 99 48 120 124 160 186 170 163 144 173 171 196 207 209 176 297 118 102 87 66 47 90 107 103 100 116 80 85 86 81 87 61 48 39 34 28 11 38 57 291 239 232 239 253 274 282 277 275 288 268
86 92 105 84 92 68 62 119 150 99 63 163 139 158 198 37 9 160 134 143 128 110 113 112 52 73 80 78 66 51 97 134 110 97 125 275 338 294 348 349 337 331 326 323 316 312 272 264 267 275 284 270 280 288
125 21 103 88 91 101 73 344 79 19 31 62 70 82 60 37 346 285 97 93 126 154 148 116 126 113 139 128 121 47 19 55 116 131 160 211 221 243 294 311 309 297 316 304 301 317 322 331 324 341 333 320 309 301
101 104 83 57 84 58 18 337 332 30 37 47 2 96 131 194 324 55 85 93 115 117 116 112 81 49 129 132 130 117 1 284 101 85 110 145 201 256 263 261 254 259 255 263 277 271 271 309 292 298 301 301 300 318
56 81 126 113 116 191 5 61 52 66 6 53 11 25 25 64 97 286 183 110 96 124 166 152 138 184 189 120 99 85 89 128 163 186 182 208 250 254 254 253 243 222 228 258 272 272 265 269 297 310 313 310 308 304
90 73 73 110 118 290 239 96 35 55 30 41 13 346 319 140 163 220 116 131 175 168 170 175 147 112 130 135 140 129 116 134 224 298 308 307 314 315 325 224 252 249 253 279 295 303 333 338 322 321 318 311 310 309